Location: Newark
(57.1691°N, 93.4410°E)
Time: 20:17:55
(UTC+00:00)

N. Korean satellite - Visible Passes

Search period start: 18 September 2020 00:00
Search period end: 28 September 2020 00:00
Orbit: 455 x 503 km, 97.2° (Epoch: 17 September)

Date Brightness Start Highest point End Pass type
(mag) Time Alt. Az. Time Alt. Az. Time Alt. Az.
18 Sep 9.7 22:30:39 10° NE 22:33:24 19° E 22:36:07 10° SE visible
19 Sep 10.2 22:05:47 10° ENE 22:07:06 11° E 22:08:22 10° ESE visible
21 Sep 9.3 22:45:42 10° NE 22:48:52 26° E 22:51:59 10° SSE visible
22 Sep 9.9 22:20:19 10° NE 22:22:36 16° E 22:24:52 10° SE visible
25 Sep 9.6 22:35:12 10° NE 22:38:04 21° E 22:40:52 10° SE visible
26 Sep 10.1 22:10:08 10° ENE 22:11:45 12° E 22:13:22 10° ESE visible
